Time,TemperatureF,DewpointF,PressureIn,WindDirection,WindDirectionDegrees,WindSpeedMPH,WindSpeedGustMPH,Humidity,HourlyPrecipIn,Conditions,Clouds,dailyrainin,SoftwareType,DateUTC
2013-05-24 00:03:00,46.0,45.0,-100.00,North,5,4.0,12.0,94,-99.99,,,-99.99,,2013-05-24 04:03:00,
2013-05-24 00:12:00,46.0,45.0,-100.00,North,0,6.0,11.0,93,-99.99,,,-99.99,,2013-05-24 04:12:00,
2013-05-24 00:22:00,46.0,44.0,-100.00,North,0,6.0,11.0,92,-99.99,,,-99.99,,2013-05-24 04:22:00,
2013-05-24 00:33:00,46.0,44.0,-100.00,North,0,6.0,12.0,92,-99.99,,,-99.99,,2013-05-24 04:33:00,
2013-05-24 00:42:00,46.0,44.0,-100.00,North,0,6.0,10.0,92,-99.99,,,-99.99,,2013-05-24 04:42:00,
2013-05-24 00:53:00,46.0,44.0,-100.00,NNE,15,6.0,13.0,91,-99.99,,,-99.99,,2013-05-24 04:53:00,
2013-05-24 01:02:00,46.0,44.0,-100.00,NNE,25,7.0,14.0,90,-99.99,,,-99.99,,2013-05-24 05:02:00,
2013-05-24 01:12:00,46.0,44.0,-100.00,North,5,7.0,10.0,90,-99.99,,,-99.99,,2013-05-24 05:12:00,
2013-05-24 01:22:00,46.0,43.0,-100.00,North,0,6.0,10.0,90,-99.99,,,-99.99,,2013-05-24 05:22:00,
2013-05-24 01:32:00,46.0,43.0,-100.00,North,5,4.0,11.0,91,-99.99,,,-99.99,,2013-05-24 05:32:00,
2013-05-24 01:42:00,46.0,43.0,-100.00,North,0,6.0,8.0,91,-99.99,,,-99.99,,2013-05-24 05:42:00,
2013-05-24 01:52:00,45.0,43.0,-100.00,North,5,4.0,8.0,92,-99.99,,,-99.99,,2013-05-24 05:52:00,
2013-05-24 02:02:00,45.0,44.0,-100.00,North,0,4.0,8.0,92,-99.99,,,-99.99,,2013-05-24 06:02:00,
2013-05-24 02:12:00,45.0,43.0,-100.00,North,0,4.0,8.0,93,-99.99,,,-99.99,,2013-05-24 06:12:00,
2013-05-24 02:21:00,45.0,43.0,-100.00,NNW,340,3.0,7.0,94,-99.99,,,-99.99,,2013-05-24 06:21:00,
2013-05-24 02:32:00,45.0,43.0,-100.00,NNW,330,2.0,6.0,94,-99.99,,,-99.99,,2013-05-24 06:32:00,
2013-05-24 02:42:00,45.0,43.0,-100.00,North,0,3.0,5.0,95,-99.99,,,-99.99,,2013-05-24 06:42:00,
2013-05-24 02:52:00,45.0,43.0,-100.00,NNW,340,2.0,6.0,95,-99.99,,,-99.99,,2013-05-24 06:52:00,
2013-05-24 03:02:00,44.0,43.0,-100.00,North,355,3.0,6.0,95,-99.99,,,-99.99,,2013-05-24 07:02:00,
2013-05-24 03:11:00,44.0,43.0,-100.00,NNW,330,4.0,6.0,96,-99.99,,,-99.99,,2013-05-24 07:11:00,
2013-05-24 03:22:00,44.0,43.0,-100.00,NNW,335,2.0,6.0,96,-99.99,,,-99.99,,2013-05-24 07:22:00,
2013-05-24 03:32:00,44.0,43.0,-100.00,NNW,335,4.0,7.0,96,-99.99,,,-99.99,,2013-05-24 07:32:00,
2013-05-24 03:42:00,44.0,43.0,-100.00,NNW,340,2.0,4.0,97,-99.99,,,-99.99,,2013-05-24 07:42:00,
2013-05-24 03:52:00,44.0,43.0,-100.00,NNW,335,3.0,4.0,97,-99.99,,,-99.99,,2013-05-24 07:52:00,
2013-05-24 04:02:00,44.0,43.0,-100.00,NNW,340,2.0,6.0,98,-99.99,,,-99.99,,2013-05-24 08:02:00,
2013-05-24 04:11:00,44.0,43.0,-100.00,North,350,2.0,4.0,98,-99.99,,,-99.99,,2013-05-24 08:11:00,
2013-05-24 04:22:00,44.0,43.0,-100.00,NNW,340,2.0,4.0,98,-99.99,,,-99.99,,2013-05-24 08:22:00,
2013-05-24 04:33:00,44.0,43.0,-100.00,NNW,330,2.0,4.0,98,-99.99,,,-99.99,,2013-05-24 08:33:00,
2013-05-24 04:42:00,44.0,44.0,-100.00,NNW,335,2.0,4.0,98,-99.99,,,-99.99,,2013-05-24 08:42:00,
2013-05-24 04:52:00,44.0,44.0,-100.00,NNW,335,3.0,4.0,98,-99.99,,,-99.99,,2013-05-24 08:52:00,
2013-05-24 05:02:00,44.0,44.0,-100.00,NNW,330,3.0,5.0,98,-99.99,,,-99.99,,2013-05-24 09:02:00,
2013-05-24 05:11:00,44.0,44.0,-100.00,North,0,3.0,6.0,98,-99.99,,,-99.99,,2013-05-24 09:11:00,
2013-05-24 05:21:00,45.0,44.0,-100.00,NW,320,3.0,5.0,99,-99.99,,,-99.99,,2013-05-24 09:21:00,
2013-05-24 05:32:00,45.0,45.0,-100.00,NNW,330,2.0,7.0,99,-99.99,,,-99.99,,2013-05-24 09:32:00,
2013-05-24 05:42:00,45.0,45.0,-100.00,NNW,345,3.0,8.0,99,-99.99,,,-99.99,,2013-05-24 09:42:00,
2013-05-24 05:52:00,44.0,44.0,-100.00,NNW,330,4.0,7.0,99,-99.99,,,-99.99,,2013-05-24 09:52:00,
2013-05-24 06:03:00,44.0,44.0,-100.00,NNW,340,6.0,8.0,99,-99.99,,,-99.99,,2013-05-24 10:03:00,
2013-05-24 06:12:00,44.0,44.0,-100.00,NNW,330,4.0,7.0,99,-99.99,,,-99.99,,2013-05-24 10:12:00,
2013-05-24 06:22:00,44.0,44.0,-100.00,NNW,340,4.0,7.0,99,-99.99,,,-99.99,,2013-05-24 10:22:00,
2013-05-24 06:33:00,44.0,44.0,-100.00,NNE,15,4.0,6.0,99,-99.99,,,-99.99,,2013-05-24 10:33:00,
2013-05-24 06:42:00,44.0,44.0,-100.00,North,5,4.0,6.0,99,-99.99,,,-99.99,,2013-05-24 10:42:00,
2013-05-24 06:52:00,44.0,44.0,-100.00,North,0,3.0,5.0,99,-99.99,,,-99.99,,2013-05-24 10:52:00,
2013-05-24 07:02:00,44.0,44.0,-100.00,NNE,15,4.0,7.0,99,-99.99,,,-99.99,,2013-05-24 11:02:00,
2013-05-24 07:12:00,44.0,44.0,-100.00,NNE,30,6.0,9.0,99,-99.99,,,-99.99,,2013-05-24 11:12:00,
2013-05-24 07:22:00,44.0,44.0,-100.00,NE,35,2.0,9.0,99,-99.99,,,-99.99,,2013-05-24 11:22:00,
2013-05-24 07:32:00,44.0,44.0,-100.00,NNE,30,5.0,9.0,98,-99.99,,,-99.99,,2013-05-24 11:32:00,
2013-05-24 07:42:00,44.0,43.0,-100.00,NNE,25,7.0,9.0,96,-99.99,,,-99.99,,2013-05-24 11:42:00,
2013-05-24 07:51:00,44.0,42.0,-100.00,NE,40,6.0,11.0,92,-99.99,,,-99.99,,2013-05-24 11:51:00,
2013-05-24 08:02:00,45.0,42.0,-100.00,NE,45,6.0,11.0,90,-99.99,,,-99.99,,2013-05-24 12:02:00,
2013-05-24 08:11:00,45.0,42.0,-100.00,NNE,15,10.0,17.0,87,-99.99,,,-99.99,,2013-05-24 12:11:00,
2013-05-24 08:22:00,44.0,41.0,-100.00,NNE,25,6.0,14.0,86,-99.99,,,-99.99,,2013-05-24 12:22:00,
2013-05-24 08:32:00,44.0,40.0,-100.00,NNE,30,7.0,14.0,84,-99.99,,,-99.99,,2013-05-24 12:32:00,
2013-05-24 08:42:00,44.0,40.0,-100.00,North,355,6.0,14.0,84,-99.99,,,-99.99,,2013-05-24 12:42:00,
2013-05-24 08:52:00,43.0,38.0,-100.00,NNW,340,9.0,16.0,83,-99.99,,,-99.99,,2013-05-24 12:52:00,
2013-05-24 09:02:00,44.0,38.0,-100.00,North,0,9.0,16.0,81,-99.99,,,-99.99,,2013-05-24 13:02:00,
2013-05-24 09:11:00,45.0,39.0,-100.00,NNW,340,7.0,12.0,80,-99.99,,,-99.99,,2013-05-24 13:11:00,
2013-05-24 09:21:00,45.0,37.0,-100.00,NE,40,12.0,19.0,75,-99.99,,,-99.99,,2013-05-24 13:21:00,
2013-05-24 09:32:00,45.0,37.0,-100.00,NE,40,12.0,19.0,75,-99.99,,,-99.99,,2013-05-24 13:32:00,
2013-05-24 09:42:00,45.0,37.0,-100.00,North,0,7.0,13.0,73,-99.99,,,-99.99,,2013-05-24 13:42:00,
2013-05-24 09:52:00,46.0,38.0,-100.00,North,0,6.0,13.0,73,-99.99,,,-99.99,,2013-05-24 13:52:00,
2013-05-24 10:02:00,45.0,37.0,-100.00,North,10,6.0,14.0,73,-99.99,,,-99.99,,2013-05-24 14:02:00,
2013-05-24 10:11:00,46.0,37.0,-100.00,NNE,30,9.0,16.0,73,-99.99,,,-99.99,,2013-05-24 14:11:00,
2013-05-24 10:21:00,46.0,38.0,-100.00,North,10,8.0,14.0,71,-99.99,,,-99.99,,2013-05-24 14:21:00,
2013-05-24 10:32:00,46.0,38.0,-100.00,NNE,15,7.0,15.0,71,-99.99,,,-99.99,,2013-05-24 14:32:00,
2013-05-24 10:42:00,46.0,37.0,-100.00,North,10,7.0,13.0,71,-99.99,,,-99.99,,2013-05-24 14:42:00,
2013-05-24 10:52:00,46.0,37.0,-100.00,North,10,7.0,13.0,71,-99.99,,,-99.99,,2013-05-24 14:52:00,
2013-05-24 11:02:00,48.0,38.0,-100.00,NNE,25,6.0,16.0,67,-99.99,,,-99.99,,2013-05-24 15:02:00,
2013-05-24 11:11:00,49.0,38.0,-100.00,NE,35,11.0,15.0,65,-99.99,,,-99.99,,2013-05-24 15:11:00,
2013-05-24 11:21:00,49.0,38.0,-100.00,North,5,12.0,16.0,65,-99.99,,,-99.99,,2013-05-24 15:21:00,
2013-05-24 11:33:00,49.0,38.0,-100.00,NNE,20,6.0,11.0,64,-99.99,,,-99.99,,2013-05-24 15:33:00,
2013-05-24 11:43:00,49.0,38.0,-100.00,NNW,340,6.0,12.0,65,-99.99,,,-99.99,,2013-05-24 15:43:00,
2013-05-24 11:52:00,49.0,37.0,-100.00,NNE,15,10.0,14.0,63,-99.99,,,-99.99,,2013-05-24 15:52:00,
2013-05-24 12:03:00,51.0,37.0,-100.00,North,10,6.0,13.0,60,-99.99,,,-99.99,,2013-05-24 16:03:00,
2013-05-24 12:12:00,51.0,37.0,-100.00,North,10,6.0,13.0,60,-99.99,,,-99.99,,2013-05-24 16:12:00,
2013-05-24 12:22:00,51.0,38.0,-100.00,North,5,10.0,13.0,59,-99.99,,,-99.99,,2013-05-24 16:22:00,
2013-05-24 12:32:00,51.0,38.0,-100.00,NW,325,6.0,13.0,61,-99.99,,,-99.99,,2013-05-24 16:32:00,
2013-05-24 12:42:00,51.0,38.0,-100.00,NNW,340,8.0,12.0,61,-99.99,,,-99.99,,2013-05-24 16:42:00,
2013-05-24 12:52:00,53.0,38.0,-100.00,NNE,15,5.0,13.0,57,-99.99,,,-99.99,,2013-05-24 16:52:00,
2013-05-24 13:02:00,54.0,38.0,-100.00,NE,55,7.0,12.0,54,-99.99,,,-99.99,,2013-05-24 17:02:00,
2013-05-24 13:12:00,52.0,37.0,-100.00,WNW,290,7.0,14.0,57,-99.99,,,-99.99,,2013-05-24 17:12:00,
2013-05-24 13:22:00,53.0,38.0,-100.00,NNE,25,7.0,13.0,56,-99.99,,,-99.99,,2013-05-24 17:22:00,
2013-05-24 13:32:00,53.0,38.0,-100.00,NNE,25,7.0,13.0,56,-99.99,,,-99.99,,2013-05-24 17:32:00,
2013-05-24 13:42:00,54.0,39.0,-100.00,NNE,15,4.0,13.0,56,-99.99,,,-99.99,,2013-05-24 17:42:00,
2013-05-24 13:52:00,55.0,39.0,-100.00,NW,320,6.0,12.0,54,-99.99,,,-99.99,,2013-05-24 17:52:00,
2013-05-24 14:01:00,55.0,39.0,-100.00,NNE,15,4.0,15.0,55,-99.99,,,-99.99,,2013-05-24 18:01:00,
2013-05-24 14:12:00,55.0,39.0,-100.00,North,5,4.0,12.0,54,-99.99,,,-99.99,,2013-05-24 18:12:00,
2013-05-24 14:21:00,55.0,38.0,-100.00,North,350,7.0,14.0,53,-99.99,,,-99.99,,2013-05-24 18:21:00,
2013-05-24 14:32:00,55.0,39.0,-100.00,North,5,7.0,12.0,53,-99.99,,,-99.99,,2013-05-24 18:32:00,
2013-05-24 14:42:00,56.0,39.0,-100.00,NNE,15,9.0,12.0,52,-99.99,,,-99.99,,2013-05-24 18:42:00,
2013-05-24 14:51:00,57.0,39.0,-100.00,West,280,3.0,12.0,51,-99.99,,,-99.99,,2013-05-24 18:51:00,
2013-05-24 15:01:00,56.0,39.0,-100.00,North,0,6.0,15.0,52,-99.99,,,-99.99,,2013-05-24 19:01:00,
2013-05-24 15:11:00,57.0,39.0,-100.00,North,0,6.0,13.0,51,-99.99,,,-99.99,,2013-05-24 19:11:00,
2013-05-24 15:21:00,56.0,39.0,-100.00,North,5,7.0,14.0,51,-99.99,,,-99.99,,2013-05-24 19:21:00,
2013-05-24 15:32:00,56.0,39.0,-100.00,North,0,7.0,14.0,52,-99.99,,,-99.99,,2013-05-24 19:32:00,
2013-05-24 15:42:00,57.0,39.0,-100.00,North,0,9.0,12.0,50,-99.99,,,-99.99,,2013-05-24 19:42:00,
2013-05-24 15:52:00,58.0,39.0,-100.00,NNE,30,2.0,15.0,49,-99.99,,,-99.99,,2013-05-24 19:52:00,
2013-05-24 16:02:00,57.0,39.0,-100.00,North,0,4.0,16.0,49,-99.99,,,-99.99,,2013-05-24 20:02:00,
2013-05-24 16:11:00,58.0,39.0,-100.00,NNW,340,9.0,16.0,48,-99.99,,,-99.99,,2013-05-24 20:11:00,
2013-05-24 16:21:00,57.0,37.0,-100.00,North,355,6.0,14.0,47,-99.99,,,-99.99,,2013-05-24 20:21:00,
2013-05-24 16:32:00,57.0,38.0,-100.00,NNW,340,11.0,16.0,48,-99.99,,,-99.99,,2013-05-24 20:32:00,
2013-05-24 16:42:00,58.0,38.0,-100.00,North,355,7.0,12.0,47,-99.99,,,-99.99,,2013-05-24 20:42:00,
2013-05-24 16:52:00,58.0,38.0,-100.00,North,355,6.0,13.0,46,-99.99,,,-99.99,,2013-05-24 20:52:00,
2013-05-24 17:01:00,58.0,38.0,-100.00,North,355,6.0,13.0,46,-99.99,,,-99.99,,2013-05-24 21:01:00,
2013-05-24 17:11:00,59.0,38.0,-100.00,North,0,6.0,15.0,45,-99.99,,,-99.99,,2013-05-24 21:11:00,
2013-05-24 17:21:00,58.0,37.0,-100.00,North,5,5.0,16.0,45,-99.99,,,-99.99,,2013-05-24 21:21:00,
2013-05-24 17:33:00,59.0,38.0,-100.00,North,350,6.0,14.0,44,-99.99,,,-99.99,,2013-05-24 21:33:00,
2013-05-24 17:43:00,59.0,37.0,-100.00,NW,320,7.0,12.0,44,-99.99,,,-99.99,,2013-05-24 21:43:00,
2013-05-24 17:53:00,58.0,37.0,-100.00,NNW,330,9.0,15.0,44,-99.99,,,-99.99,,2013-05-24 21:53:00,
2013-05-24 18:03:00,59.0,37.0,-100.00,North,0,8.0,11.0,44,-99.99,,,-99.99,,2013-05-24 22:03:00,
2013-05-24 18:12:00,59.0,37.0,-100.00,North,10,7.0,13.0,44,-99.99,,,-99.99,,2013-05-24 22:12:00,
2013-05-24 18:22:00,59.0,37.0,-100.00,NNE,20,6.0,12.0,43,-99.99,,,-99.99,,2013-05-24 22:22:00,
2013-05-24 18:33:00,58.0,37.0,-100.00,North,0,9.0,13.0,44,-99.99,,,-99.99,,2013-05-24 22:33:00,
2013-05-24 18:42:00,59.0,37.0,-100.00,North,0,4.0,12.0,44,-99.99,,,-99.99,,2013-05-24 22:42:00,
2013-05-24 18:52:00,59.0,37.0,-100.00,NNW,340,6.0,11.0,44,-99.99,,,-99.99,,2013-05-24 22:52:00,
2013-05-24 19:02:00,59.0,38.0,-100.00,North,5,7.0,12.0,45,-99.99,,,-99.99,,2013-05-24 23:02:00,
2013-05-24 19:11:00,59.0,38.0,-100.00,North,350,6.0,9.0,45,-99.99,,,-99.99,,2013-05-24 23:11:00,
2013-05-24 19:22:00,58.0,37.0,-100.00,NE,35,7.0,12.0,45,-99.99,,,-99.99,,2013-05-24 23:22:00,
2013-05-24 19:32:00,58.0,38.0,-100.00,North,5,8.0,12.0,45,-99.99,,,-99.99,,2013-05-24 23:32:00,
2013-05-24 19:42:00,58.0,37.0,-100.00,North,5,7.0,12.0,45,-99.99,,,-99.99,,2013-05-24 23:42:00,
2013-05-24 19:52:00,58.0,36.0,-100.00,NNE,20,10.0,14.0,44,-99.99,,,-99.99,,2013-05-24 23:52:00,
2013-05-24 20:01:00,58.0,37.0,-100.00,NE,40,6.0,14.0,45,-99.99,,,-99.99,,2013-05-25 00:01:00,
2013-05-24 20:12:00,57.0,37.0,-100.00,North,10,6.0,11.0,45,-99.99,,,-99.99,,2013-05-25 00:12:00,
2013-05-24 20:21:00,57.0,36.0,-100.00,NNE,25,8.0,12.0,45,-99.99,,,-99.99,,2013-05-25 00:21:00,
2013-05-24 20:32:00,57.0,37.0,-100.00,NNE,30,6.0,12.0,45,-99.99,,,-99.99,,2013-05-25 00:32:00,
2013-05-24 20:42:00,57.0,36.0,-100.00,NNE,30,6.0,9.0,46,-99.99,,,-99.99,,2013-05-25 00:42:00,
2013-05-24 20:51:00,56.0,37.0,-100.00,NE,35,4.0,7.0,47,-99.99,,,-99.99,,2013-05-25 00:51:00,
2013-05-24 21:01:00,55.0,36.0,-100.00,NNE,30,7.0,10.0,48,-99.99,,,-99.99,,2013-05-25 01:01:00,
2013-05-24 21:11:00,55.0,36.0,-100.00,NNE,25,6.0,10.0,49,-99.99,,,-99.99,,2013-05-25 01:11:00,
2013-05-24 21:22:00,54.0,36.0,-100.00,NNE,25,5.0,8.0,49,-99.99,,,-99.99,,2013-05-25 01:22:00,
2013-05-24 21:32:00,54.0,36.0,-100.00,NNE,30,4.0,7.0,50,-99.99,,,-99.99,,2013-05-25 01:32:00,
2013-05-24 21:42:00,54.0,36.0,-100.00,NNE,30,5.0,7.0,51,-99.99,,,-99.99,,2013-05-25 01:42:00,
2013-05-24 21:52:00,53.0,37.0,-100.00,NE,35,5.0,9.0,52,-99.99,,,-99.99,,2013-05-25 01:52:00,
2013-05-24 22:02:00,53.0,37.0,-100.00,NE,45,2.0,6.0,54,-99.99,,,-99.99,,2013-05-25 02:02:00,
2013-05-24 22:12:00,53.0,37.0,-100.00,NE,40,3.0,6.0,54,-99.99,,,-99.99,,2013-05-25 02:12:00,
2013-05-24 22:21:00,53.0,37.0,-100.00,NE,40,2.0,6.0,55,-99.99,,,-99.99,,2013-05-25 02:21:00,
2013-05-24 22:32:00,52.0,37.0,-100.00,North,5,1.0,5.0,57,-99.99,,,-99.99,,2013-05-25 02:32:00,
2013-05-24 22:42:00,51.0,37.0,-100.00,NNW,345,1.0,4.0,59,-99.99,,,-99.99,,2013-05-25 02:42:00,
2013-05-24 22:51:00,51.0,38.0,-100.00,NNW,335,2.0,3.0,60,-99.99,,,-99.99,,2013-05-25 02:51:00,
2013-05-24 23:02:00,51.0,38.0,-100.00,SE,140,1.0,4.0,62,-99.99,,,-99.99,,2013-05-25 03:02:00,
2013-05-24 23:11:00,51.0,40.0,-100.00,SSW,195,3.0,5.0,65,-99.99,,,-99.99,,2013-05-25 03:11:00,
2013-05-24 23:21:00,51.0,41.0,-100.00,SSW,210,4.0,6.0,69,-99.99,,,-99.99,,2013-05-25 03:21:00,
2013-05-24 23:32:00,50.0,42.0,-100.00,SSW,205,3.0,6.0,73,-99.99,,,-99.99,,2013-05-25 03:32:00,
2013-05-24 23:43:00,50.0,43.0,-100.00,South,180,3.0,4.0,77,-99.99,,,-99.99,,2013-05-25 03:43:00,
2013-05-24 23:53:00,50.0,44.0,-100.00,South,180,4.0,6.0,79,-99.99,,,-99.99,,2013-05-25 03:53:00,